GLOBALSTAR M069 1 31573U 07020C 26106.28378943 -.00000116 00000+0 -21572-3 0 9996 2 31573 52.0033 67.3332 0002102 24.1467 119.5344 12.23469904871224 GLOBALSTAR M072 1 31574U 07020D 26106.17414874 -.00000094 00000+0 -13285-3 0 9996 2 31574 51.9927 265.3424 0001582 161.1787 9.4899 11.91657190867581 GLOBALSTAR M066 1 32265U 07048C 26106.12078731 -.00000113 00000+0 -15812-3 0 9997 2 32265 51.9588 236.0879 0004109 267.2339 280.1158 12.30388231852581 GLOBALSTAR M079 1 37188U 10054A 26106.23842483 -.00000096 00000+0 43818-4 0 9999 2 37188 52.0045 297.2526 0000684 118.7193 52.3332 12.62264990714726 GLOBALSTAR M074 1 37189U 10054B 26106.26487501 -.00000091 00000+0 71123-4 0 9994 2 37189 52.0023 296.4474 0000702 90.9566 80.0088 12.62267501715337 GLOBALSTAR M076 1 37190U 10054C 26106.29118560 -.00000075 00000+0 16206-3 0 9997 2 37190 52.0034 296.5642 0000486 95.3571 75.9050 12.62271920715054 GLOBALSTAR M077 1 37191U 10054D 26106.07917966 -.00000053 00000+0 45345-3 0 9993 2 37191 51.9985 336.9367 0003272 65.4085 102.9897 11.67547384713888 GLOBALSTAR M075 1 37192U 10054E 26106.06561994 -.00000085 00000+0 10274-3 0 9997 2 37192 51.9966 339.3403 0000797 88.3486 76.9168 12.62265824714091 GLOBALSTAR M073 1 37193U 10054F 26105.90927146 -.00000113 00000+0 -49713-4 0 9999 2 37193 52.0054 253.8670 0000576 130.1918 43.2631 12.62266375716062 GLOBALSTAR M083 1 37739U 11033A 26106.20318472 -.00000088 00000+0 85632-4 0 9993 2 37739 51.9852 201.2854 0000483 154.1221 217.2919 12.62262535685121 GLOBALSTAR M088 1 37740U 11033B 26106.25676108 -.00000090 00000+0 79609-4 0 9993 2 37740 52.0197 107.3996 0000260 68.4951 304.5056 12.62263109680675 GLOBALSTAR M091 1 37741U 11033C 26106.30352874 -.00000134 00000+0 -17134-3 0 9995 2 37741 51.9998 70.3116 0000388 88.5447 78.4890 12.62262589681462 GLOBALSTAR M085 1 37742U 11033D 26106.01986260 -.00000099 00000+0 24843-4 0 9991 2 37742 52.0151 22.4139 0000650 93.8203 283.8000 12.62270166681948 GLOBALSTAR M081 1 37743U 11033E 26106.23730080 -.00000106 00000+0 -12790-4 0 9991 2 37743 51.9981 24.2591 0000500 74.3360 91.0410 12.62263382682118 GLOBALSTAR M089 1 37744U 11033F 26106.11853892 -.00000085 00000+0 10641-3 0 9993 2 37744 51.9954 338.7951 0000734 62.9528 102.8211 12.62265684682948 GLOBALSTAR M084 1 38040U 11080A 26106.25774410 -.00000097 00000+0 35413-4 0 9996 2 38040 52.0003 205.8179 0000294 100.4975 278.0571 12.62266332660948 GLOBALSTAR M080 1 38041U 11080B 26106.31196546 -.00000099 00000+0 26498-4 0 9997 2 38041 52.0053 207.3499 0000981 125.9989 268.7603 12.62268259661073 GLOBALSTAR M082 1 38042U 11080C 26106.08344751 -.00000064 00000+0 22145-3 0 9991 2 38042 52.0064 163.5403 0000633 136.8821 229.0036 12.62269145661754 GLOBALSTAR M092 1 38043U 11080D 26106.17279088 -.00000095 00000+0 51431-4 0 9997 2 38043 52.0081 253.6610 0000689 108.0232 63.5411 12.62266454660211 GLOBALSTAR M090 1 38044U 11080E 26106.28367802 -.00000066 00000+0 21266-3 0 9992 2 38044 52.0107 156.8663 0000315 145.5541 289.8297 12.62268051661893 GLOBALSTAR M086 1 38045U 11080F 26106.13755828 -.00000076 00000+0 15756-3 0 9994 2 38045 51.9878 157.3424 0000755 262.2957 125.5637 12.62285225661823 GLOBALSTAR M097 1 39072U 13005A 26106.24027126 -.00000120 00000+0 -88566-4 0 9990 2 39072 52.0043 71.9012 0000283 90.8195 269.2704 12.62260115609081 GLOBALSTAR M093 1 39073U 13005B 26106.21405297 -.00000110 00000+0 -32629-4 0 9995 2 39073 52.0108 65.3065 0000225 116.1165 243.9725 12.62264515609039 GLOBALSTAR M094 1 39074U 13005C 26106.05577764 -.00000081 00000+0 12450-3 0 9992 2 39074 51.9980 339.9726 0000665 103.8440 256.2501 12.62267459610623 GLOBALSTAR M096 1 39075U 13005D 26106.14824033 -.00000100 00000+0 18721-4 0 9997 2 39075 52.0095 28.4397 0000539 90.2498 269.8431 12.62264047609551 GLOBALSTAR M078 1 39076U 13005E 26106.04200501 -.00000092 00000+0 67754-4 0 9995 2 39076 51.9851 112.8565 0001105 120.5486 239.5490 12.62276874608165 GLOBALSTAR M095 1 39077U 13005F 26106.30636521 -.00000094 00000+0 54593-4 0 9999 2 39077 52.0063 109.5692 0000518 138.6463 221.4443 12.62267389608056 GLOBALSTAR M087 1 52888U 22064A 26106.08227769 -.00000112 00000+0 -48654-4 0 9997 2 52888 51.9995 251.5290 0000801 131.2391 228.8545 12.62268127183298